Location: Tucson
(32.2217°N, 110.9265°W)
Time: 22:33:18
(UTC-07:00)

SRMSAT - Visible Passes

Search period start: 27 September 2022 00:00
Search period end: 07 October 2022 00:00
Orbit: 848 x 865 km, 20.0° (Epoch: 27 September)

Date Brightness Start Highest point End Pass type
(mag) Time Alt. Az. Time Alt. Az. Time Alt. Az.
27 Sep ? 04:16:30 21° S 04:16:58 21° S 04:21:17 10° SE visible
28 Sep ? 04:04:17 22° SSE 04:04:17 22° SSE 04:08:12 10° SE visible
28 Sep ? 05:47:43 10° SW 05:52:21 24° S 05:57:02 10° SE visible
29 Sep ? 03:52:04 21° SSE 03:52:04 21° SSE 03:55:06 10° SE visible
29 Sep ? 05:34:34 10° SW 05:39:11 24° S 05:43:47 10° SE visible
30 Sep ? 03:39:52 18° SE 03:39:52 18° SE 03:41:59 10° SE visible
30 Sep ? 05:21:51 11° SW 05:25:59 23° S 05:30:32 10° SE visible
01 Oct ? 03:27:39 15° SE 03:27:39 15° SE 03:28:51 10° SE visible
01 Oct ? 05:09:38 15° SW 05:12:48 22° S 05:17:16 10° SE visible
02 Oct ? 03:15:28 11° SE 03:15:28 11° SE 03:15:41 10° SE visible
02 Oct ? 04:57:27 17° SW 04:59:36 21° S 05:03:58 10° SE visible
03 Oct ? 04:45:16 19° SSW 04:46:25 20° S 04:50:38 10° SE visible
04 Oct ? 04:33:07 19° SSW 04:33:14 19° S 04:37:17 10° SSE visible
05 Oct ? 04:20:59 17° S 04:20:59 17° S 04:23:54 10° SSE visible
06 Oct ? 04:08:51 14° S 04:08:51 14° S 04:10:27 10° SSE visible
